TimeEST,TemperatureF,Dew PointF,Humidity,Sea Level PressureIn,VisibilityMPH,Wind Direction,Wind SpeedMPH,Gust SpeedMPH,PrecipitationIn,Events,Conditions,WindDirDegrees,DateUTC
12:54 AM,28.0,19.9,72,30.29,9.0,NW,9.2,-,0.00,Snow,Light Snow,310,2013-12-12 05:54:00
1:54 AM,28.0,19.0,69,30.30,10.0,West,8.1,-,0.00,,Overcast,260,2013-12-12 06:54:00
2:54 AM,26.1,18.0,71,30.31,10.0,WNW,11.5,-,N/A,,Partly Cloudy,290,2013-12-12 07:54:00
3:54 AM,27.0,15.1,61,30.32,10.0,West,6.9,-,N/A,,Mostly Cloudy,280,2013-12-12 08:54:00
4:54 AM,24.1,19.0,81,30.34,2.0,NNW,12.7,-,0.00,Snow,Light Snow,330,2013-12-12 09:54:00
5:03 AM,24.8,17.6,74,30.31,5.0,NW,10.4,-,0.00,Snow,Light Snow,320,2013-12-12 10:03:00
5:24 AM,24.8,17.6,74,30.31,9.0,NW,11.5,-,0.00,,Overcast,320,2013-12-12 10:24:00
5:42 AM,23.0,15.8,74,30.31,8.0,NW,8.1,-,0.00,Snow,Light Snow,320,2013-12-12 10:42:00
5:50 AM,23.0,15.8,74,30.31,9.0,NNW,6.9,-,0.00,,Scattered Clouds,330,2013-12-12 10:50:00
5:54 AM,21.9,14.0,72,30.34,10.0,NW,5.8,-,0.00,,Partly Cloudy,320,2013-12-12 10:54:00
6:52 AM,23.0,15.8,74,30.34,2.5,NW,10.4,-,0.00,Snow,Light Snow,310,2013-12-12 11:52:00
6:54 AM,23.0,16.0,74,30.37,2.0,NW,10.4,-,0.00,Snow,Light Snow,310,2013-12-12 11:54:00
7:33 AM,21.2,17.6,86,30.36,1.5,WNW,6.9,-,0.00,Snow,Light Snow,300,2013-12-12 12:33:00
7:37 AM,21.2,17.6,86,30.36,3.0,WNW,6.9,-,0.00,Snow,Light Snow,300,2013-12-12 12:37:00
7:54 AM,19.9,15.1,81,30.39,9.0,NW,5.8,-,0.00,,Mostly Cloudy,310,2013-12-12 12:54:00
8:54 AM,23.0,12.9,65,30.41,10.0,NW,11.5,-,N/A,,Overcast,310,2013-12-12 13:54:00
9:54 AM,24.1,7.0,48,30.41,10.0,NW,13.8,-,0.00,,Scattered Clouds,310,2013-12-12 14:54:00
10:54 AM,24.1,8.1,51,30.40,10.0,NW,11.5,-,N/A,,Clear,310,2013-12-12 15:54:00
11:54 AM,25.0,6.1,45,30.35,10.0,WNW,10.4,-,N/A,,Clear,300,2013-12-12 16:54:00
12:54 PM,25.0,6.1,45,30.33,10.0,WNW,15.0,-,0.00,,Partly Cloudy,290,2013-12-12 17:54:00
1:54 PM,25.0,5.0,43,30.32,10.0,West,11.5,-,N/A,,Clear,280,2013-12-12 18:54:00
2:54 PM,25.0,1.9,37,30.30,10.0,West,12.7,20.7,N/A,,Clear,270,2013-12-12 19:54:00
3:54 PM,25.0,3.0,39,30.30,10.0,WSW,8.1,-,N/A,,Clear,250,2013-12-12 20:54:00
4:54 PM,23.0,3.9,44,30.30,10.0,SW,3.5,-,N/A,,Clear,230,2013-12-12 21:54:00
5:54 PM,21.9,3.9,46,30.31,10.0,West,3.5,-,N/A,,Clear,270,2013-12-12 22:54:00
6:54 PM,21.9,1.9,42,30.31,10.0,West,4.6,-,N/A,,Clear,260,2013-12-12 23:54:00
7:54 PM,21.0,1.0,42,30.31,10.0,West,3.5,-,N/A,,Clear,260,2013-12-13 00:54:00
8:54 PM,18.0,9.0,68,30.28,10.0,Calm,Calm,-,N/A,,Clear,0,2013-12-13 01:54:00
9:54 PM,19.9,3.9,50,30.24,10.0,SSW,3.5,-,N/A,,Overcast,200,2013-12-13 02:54:00
10:54 PM,19.9,3.9,50,30.22,10.0,SW,8.1,-,N/A,,Scattered Clouds,220,2013-12-13 03:54:00
11:54 PM,19.0,3.0,50,30.20,10.0,SSW,5.8,-,N/A,,Clear,210,2013-12-13 04:54:00